Location: Ar Ranvel
(48.3000°N, 4.8833°W)
Time: 16:04:37
(UTC+00:00)

Cosmos 2322 - Pass Details

Date: 16 June 2021
Orbit: 839 x 856 km, 71.0° (Epoch: 30 July)

Event Time Altitude Azimuth Distance (km) Brightness Sun altitude
Exits shadow 22:03:03 13° 173° (S) 2,228 5.3 -12.0°
Maximum altitude 22:07:37 40° 108° (ESE) 1,214 4.2 -12.4°
Drops below altitude 10° 22:12:51 10° 40° (NE) 2,467 6.4 -12.8°
Sets 22:15:26 0° 33° (NNE) 3,408 7.2 -13.0°
